Location: Wapato
(46.4478°N, 120.4212°W)
Time: 15:10:31
(UTC+00:00)

Explorer 7 - Pass Details

Date: 14 May 2026
Orbit: 426 x 534 km, 50.2° (Epoch: 8 June)

Event Time Altitude Azimuth Distance (km) Brightness Sun altitude
Rises 14:43:46 0° 256° (WSW) 2,467 9.6 21.2°
Reaches altitude 10° 14:45:53 10° 259° (W) 1,613 8.7 21.6°
Maximum altitude 14:49:30 66° 343° (NNW) 524 7.0 22.2°
Drops below altitude 10° 14:53:18 10° 66° (ENE) 1,685 10.8 22.9°
Sets 14:55:33 0° 69° (ENE) 2,589 11.5 23.2°
